Погода Алуксне

Погода Алуксне : погода сейчас, прогноз погоды и архив. Всё, что Вы хотите узнать о погоде Алуксне!

Поиск расширенной информации на нашем сайте:

Другие новости

Новости СМИ2

Главная страница сайта

Новости сайта

03.07.2017

Напоминаем, что на нашем специализированном сайте Метеоцентр.Азия вы можете получить высокодетализированные автоматические прогнозы погоды по пунктам России, СНГ и мира в авиационном формате (включающие направление и скорость ветра, видимость, явления погоды, количество и форму облачности, нижнюю и верхнюю границу облачности).

Рекомендуем: Прикольный подарок - Авто номера - автомобильные номера имена

Погода Алуксне - сегодня

Время (UTC), дата Ветер
(°,м/с) 
Видим.   Явления Облачность Т
(°С)
Тd
(°С)
f(%) Тe
(°С)
Pmin
(гПа)
dP
(гПа)
Po
(мм)
O2
(г/м3)
Тmin Tmax R s Состояние
почвы
18 22.09.18 210 (ЮЗ) 4-6  н/о    н/о 
+9.5 +9  1007.3  738  287           
21 22.09.18 210 (ЮЗ) 3-4  н/о    н/о 
+8.3 +8  1007.2  737  288           
00 23.09.18 220 (ЮЗ) 3-5  н/о    н/о 
+7.7 +7  1006.4  737  289           
03 23.09.18 210 (ЮЗ) 4-5  н/о    н/о 
+7 +6  1005  736  289           
06 23.09.18 200 (Ю) 5-6  н/о    н/о 
+7.4 +6  1004.5  735  288           
09 23.09.18 210 (ЮЗ) 5-8  н/о    н/о 
+11.1 +10  1003.6  735  285           
12 23.09.18 260 (З) 3-5  н/о    н/о 
+11.2 +11  1003.7  735  284           
15 23.09.18 210 (ЮЗ) 3-5  н/о    н/о 
+9.1 +9  1004  735  287           
18 23.09.18 300 (СЗ) 1-1  н/о    н/о 
+7 +8  1003.9  735  289           
21 23.09.18 200 (Ю) 3-4  н/о    н/о 
+7.3 +7  1004.1  735  288           
00 24.09.18 190 (Ю) 4-5  н/о    н/о 
+6.9 +6  1002.7  734  288           
03 24.09.18 200 (Ю) 3-4  н/о    н/о 
+6.2 +5  1002.8  734  289           
06 24.09.18 тихо () -0  н/о    н/о 
+6.3 +6  1002.6  734  289           
09 24.09.18 340 (С) 1-2  н/о    н/о 
+8.5 +10  1002.6  734  287           
12 24.09.18 330 (СЗ) 2-3  н/о    н/о 
+10.7 +11  1002.8  734  285           
15 24.09.18 320 (СЗ) 2-3  н/о    н/о 
+8.8 +9  1004.4  736  287           
18 24.09.18 310 (СЗ) 2-3  н/о    н/о 
+5.6 +5  1006.6  737  291           
21 24.09.18 300 (СЗ) 3-4  н/о    н/о 
+3.4 +2  1008.5  738  294           
00 25.09.18 310 (СЗ) 3-4  н/о    н/о 
+2.9 +2  1010.2  739  295           
03 25.09.18 300 (СЗ) 4-5  н/о    н/о 
+1.8 1012.2  741  296           
06 25.09.18 310 (СЗ) 3-5  н/о    н/о 
+3.5 +2  1014.5  743  295           
09 25.09.18 310 (СЗ) 4{11}  н/о    н/о 
+7.7 +1.2 63 +6  1016.5  2.5  745  291           
12 25.09.18 340 (С) 6-8  н/о    н/о 
+8.3 +6  1019  746  292           
15 25.09.18 310 (СЗ) 4{13}  н/о    н/о 
+8.2 -3.4 44 +7  1020.7  1.8  748  292           
18 25.09.18 290 (З) 2{13}  н/о    н/о 
+5 -0.9 66 +5  1023.3  2.3  749  296    +9.8       
Время (UTC), дата Ветер
(°,м/с) 
Видим.   Явления Облачность Т
(°С)
Тd
(°С)
f(%) Тe
(°С)
Pmin
(гПа)
dP
(гПа)
Po
(мм)
O2
(г/м3)
Тmin Tmax R s Состояние
почвы

Для получения пояснительной информации подведите курсор к названию столбца.

ПОГОДА Алуксне - архив

Всё, что Вы хотите узнать о погоде Алуксне - удобно и подробно!

Выберите нужную дату (начиная с 1 января 2015* года) и нажмите кнопку "Найти".
Будут отображены архивные сводки погоды по пункту Алуксне, начиная с указанной даты.


Отображать данные в формате CSV (для использования в таблицах Excel)


Внимание! Наш архив погоды предназначен исключительно для личного некоммерческого использования в познавательных целях. Если Вам необходимы официальные справки о состоянии погоды (для производственных, юридических, коммерческих и т.п. целей), обращайтесь в органы Росгидромета.

*Примечание: данная дата относится к архиву по метеостанциям СССР (Россия, СНГ, Балтия).
Архив по метеостанциям Зарубежной Европы и Азии (кроме Китая) хранится 10 дней, по другим регионам земного шара (Китай, Африка, Америка, Австралия, Океания) - 1 день.

Алуксне - район местоположения метеостанции


Название, широта, долгота, высота метеостанции:
Алуксне 57.4°ш. 27°д. 193 м над ур. моря [Латвия]

Дополнительная информация

В oтличие oт бoльшинства пoгoдных сайтoв мы публикуем пoдрoбную метеoинфoрмацию в детальнoм прoфессиoнальнoм фoрмате.

Характеристики температуры и влажнoсти вoздуха измеряются на высoте 2 м в тени вдали oт зданий и деревьев.
Скoрoсть ветра измеряется на высoте 10 м (на урoвне рoста челoвека скoрoсть ветра ниже в 1.5-2 раза). Если метеoстанция нахoдится в гoрoде или в лесу, тo скoрoсть ветра занижена на 2-4 м/с пo сравнению с oткрытым местoм. Скoрoсть ветра над акватoриями крупных рек и oзёр, а также на вершинах хoлмoв на 2-5 м/с выше, чем в oбычных услoвиях.
Атмoсфернoе давление в разных тoчках местнoсти мoжет значительнo oтличаться oт давления на метеoстанции, в зависимoсти oт услoвий рельефа (при пoдъёме на 10 м давление пoнижается примернo на 1 мм рт.ст.).